Location: *
(55.5817°S, 142.4781°W)
Time: 09:37:21
(UTC+00:00)

CZ-4C R/B - Pass Details

Date: 29 April 2025
Orbit: 503 x 1481 km, 63.4° (Epoch: 18 May)

Event Time Altitude Azimuth Distance (km) Brightness Sun altitude
Rises 15:35:00 0° 314° (NW) 4,487 5.6 -11.0°
Reaches altitude 10° 15:38:08 10° 314° (NW) 3,429 5.0 -10.6°
Maximum altitude 15:46:34 85° 40° (NE) 1,191 3.0 -9.4°
Drops below altitude 10° 15:53:16 10° 128° (SE) 2,762 5.4 -8.5°
Sets 15:55:34 0° 128° (SE) 3,577 6.1 -8.1°
